Location: Amherst
(42.5000°N, 72.5000°W)
Time: 05:45:33
(UTC-04:00)

ISS - Pass Details

Date: 22 May 2018
Orbit: 402 x 407 km, 51.6° (Epoch: 27 May)

Event Time Altitude Azimuth Distance (km) Brightness Sun altitude
Rises 23:10:55 0° 278° (W) 2,316 0.5 -23.2°
Reaches altitude 10° 23:13:21 10° 296° (WNW) 1,458 -0.4 -23.4°
Maximum altitude 23:15:52 20° 346° (NNW) 995 -1.1 -23.5°
Drops below altitude 10° 23:18:24 10° 37° (NE) 1,459 -0.7 -23.7°
Sets 23:20:51 0° 55° (NE) 2,319 0.2 -23.9°
